Location: Bazugues
(43.4465°N, 0.3432°E)
Time: 06:37:17
(UTC+00:00)

Cosmos 1703 - Pass Details

Date: 12 January 2026
Orbit: 414 x 425 km, 82.5° (Epoch: 10 February)

Event Time Altitude Azimuth Distance (km) Brightness Sun altitude
Rises 17:53:25 0° 174° (S) 2,397 6.8 -12.3°
Reaches altitude 10° 17:55:30 10° 168° (SSE) 1,534 5.7 -12.6°
Maximum altitude 17:58:42 45° 94° (E) 599 3.1 -13.2°
Enters shadow 18:01:19 14° 24° (NNE) 1,299 4.8 -13.6°
